When you browse on this site, cookies collect data to enhance your experience and personalize the content and advertising you see.
Visit our Privacy Policy to learn more. By continuing to use the site, you agree to this use of cookies and data.
  • In Latvia
  • List of Countries
  • For 7 days
  • Water Temperature
  • Satellite Maps
  • Weather Map
  • Weather Widgets
  • user-avatar
    Login

    Hourly Weather Limbazi

    Today, 16 July, Tuesday

    Time Temperature Precipitation Wind Pressure Humidity
    00:00 +13°C° 0.2 mm 2 mps 750 mmHg 88%
    01:00 +13°C° 0.2 mm 2 mps 750 mmHg 91%
    02:00 +12°C° 0 mm 2 mps 750 mmHg 94%
    03:00 +11°C° 0.2 mm 3 mps 749 mmHg 94%
    04:00 +12°C° 0.2 mm 3 mps 749 mmHg 95%
    05:00 +12°C° 0.2 mm 3 mps 749 mmHg 95%
    06:00 +12°C° 0.3 mm 3 mps 749 mmHg 95%
    07:00 +13°C° 0.3 mm 3 mps 748 mmHg 95%
    08:00 +13°C° 0 mm 4 mps 748 mmHg 95%
    09:00 +13°C° 1.6 mm 3 mps 748 mmHg 95%
    10:00 +13°C° 1.6 mm 3 mps 748 mmHg 95%
    11:00 +13°C° 1.6 mm 3 mps 748 mmHg 96%
    12:00 +15°C° 0.5 mm 2 mps 748 mmHg 93%
    13:00 +15°C° 0.5 mm 2 mps 748 mmHg 91%
    14:00 +15°C° 0 mm 1 mps 748 mmHg 88%
    15:00 +15°C° 0.4 mm 1 mps 748 mmHg 89%
    16:00 +15°C° 0.4 mm 1 mps 748 mmHg 89%
    17:00 +15°C° 0.4 mm 1 mps 748 mmHg 90%
    18:00 +14°C° 0 mm 1 mps 748 mmHg 91%
    19:00 +14°C° 0 mm 1 mps 748 mmHg 93%
    20:00 +14°C° 0 mm 1 mps 748 mmHg 94%
    21:00 +13°C° 0 mm 1 mps 748 mmHg 94%
    22:00 +13°C° 0 mm 1 mps 748 mmHg 94%
    23:00 +13°C° 0 mm 1 mps 748 mmHg 94%

    Tomorrow, 17 July, Wednesday

    Time Temperature Precipitation Wind Pressure Humidity
    00:00 +13°C° 0.1 mm 1 mps 748 mmHg 95%
    01:00 +13°C° 0.1 mm 1 mps 748 mmHg 95%
    02:00 +12°C° 0.1 mm 0 mps 748 mmHg 96%
    03:00 +13°C° 0.2 mm 1 mps 748 mmHg 96%
    04:00 +13°C° 0.2 mm 1 mps 748 mmHg 96%
    05:00 +13°C° 0.2 mm 2 mps 748 mmHg 97%
    06:00 +14°C° 0 mm 2 mps 748 mmHg 93%
    07:00 +15°C° 0 mm 2 mps 748 mmHg 90%
    08:00 +16°C° 0 mm 3 mps 748 mmHg 87%
    09:00 +17°C° 0.4 mm 3 mps 748 mmHg 83%
    10:00 +18°C° 0.4 mm 3 mps 748 mmHg 78%
    11:00 +20°C° 0.4 mm 3 mps 748 mmHg 74%
    12:00 +20°C° 0.6 mm 2 mps 748 mmHg 74%
    13:00 +20°C° 0.6 mm 2 mps 748 mmHg 75%
    14:00 +21°C° 0.6 mm 1 mps 748 mmHg 76%
    15:00 +20°C° 0.7 mm 2 mps 749 mmHg 79%
    16:00 +20°C° 0.7 mm 2 mps 749 mmHg 81%
    17:00 +19°C° 0.7 mm 2 mps 749 mmHg 84%
    18:00 +18°C° 0.2 mm 2 mps 749 mmHg 86%
    19:00 +17°C° 0.2 mm 2 mps 749 mmHg 88%
    20:00 +16°C° 0.2 mm 3 mps 749 mmHg 91%
    21:00 +14°C° 0 mm 3 mps 749 mmHg 92%
    22:00 +13°C° 0 mm 3 mps 749 mmHg 94%
    23:00 +12°C° 0 mm 3 mps 749 mmHg 95%

    Day after tomorrow, 18 July, Thursday

    Time Temperature Precipitation Wind Pressure Humidity
    00:00 +12°C° 0 mm 3 mps 749 mmHg 95%
    01:00 +12°C° 0 mm 3 mps 749 mmHg 94%
    02:00 +11°C° 0 mm 3 mps 749 mmHg 94%
    03:00 +11°C° 0 mm 3 mps 749 mmHg 93%
    04:00 +11°C° 0 mm 3 mps 749 mmHg 92%
    05:00 +11°C° 0 mm 3 mps 749 mmHg 91%
    06:00 +13°C° 0 mm 4 mps 750 mmHg 81%
    07:00 +17°C° 0 mm 4 mps 750 mmHg 70%
    08:00 +19°C° 0 mm 5 mps 750 mmHg 59%
    09:00 +20°C° 0 mm 5 mps 750 mmHg 55%
    10:00 +21°C° 0 mm 5 mps 750 mmHg 52%
    11:00 +22°C° 0 mm 5 mps 750 mmHg 49%
    12:00 +23°C° 0 mm 5 mps 750 mmHg 47%
    13:00 +23°C° 0 mm 6 mps 750 mmHg 46%
    14:00 +23°C° 0 mm 6 mps 750 mmHg 45%
    15:00 +23°C° 0 mm 6 mps 750 mmHg 47%
    16:00 +23°C° 0 mm 6 mps 750 mmHg 48%
    17:00 +22°C° 0 mm 5 mps 750 mmHg 50%
    18:00 +21°C° 0 mm 5 mps 750 mmHg 56%
    19:00 +20°C° 0 mm 4 mps 750 mmHg 62%
    20:00 +18°C° 0 mm 4 mps 750 mmHg 68%
    21:00 +17°C° 0 mm 4 mps 750 mmHg 72%
    22:00 +15°C° 0 mm 4 mps 751 mmHg 76%
    23:00 +14°C° 0 mm 4 mps 751 mmHg 79%

    19 July, Friday

    Time Temperature Precipitation Wind Pressure Humidity
    00:00 +14°C° 0 mm 3 mps 751 mmHg 83%
    01:00 +13°C° 0 mm 3 mps 751 mmHg 86%
    02:00 +13°C° 0 mm 3 mps 751 mmHg 90%
    03:00 +13°C° 0 mm 3 mps 751 mmHg 87%
    04:00 +14°C° 0 mm 3 mps 751 mmHg 85%
    05:00 +14°C° 0 mm 3 mps 751 mmHg 83%
    06:00 +16°C° 0 mm 3 mps 751 mmHg 79%
    07:00 +17°C° 0 mm 3 mps 751 mmHg 76%
    08:00 +18°C° 0 mm 4 mps 751 mmHg 72%
    09:00 +18°C° 0.1 mm 3 mps 751 mmHg 74%
    10:00 +18°C° 0.1 mm 3 mps 751 mmHg 76%
    11:00 +18°C° 0.1 mm 3 mps 751 mmHg 78%
    12:00 +18°C° 0 mm 3 mps 751 mmHg 74%
    13:00 +19°C° 0 mm 4 mps 751 mmHg 70%
    14:00 +20°C° 0 mm 4 mps 751 mmHg 66%
    15:00 +20°C° 0 mm 4 mps 751 mmHg 65%
    16:00 +20°C° 0 mm 4 mps 751 mmHg 64%
    17:00 +20°C° 0 mm 4 mps 751 mmHg 63%
    18:00 +19°C° 0 mm 4 mps 751 mmHg 67%
    19:00 +19°C° 0 mm 4 mps 751 mmHg 71%
    20:00 +18°C° 0 mm 4 mps 751 mmHg 75%
    21:00 +17°C° 0 mm 3 mps 752 mmHg 76%
    22:00 +17°C° 0 mm 3 mps 752 mmHg 78%
    23:00 +17°C° 0 mm 3 mps 752 mmHg 79%

    20 July, Saturday

    Time Temperature Precipitation Wind Pressure Humidity
    00:00 +16°C° 0 mm 3 mps 752 mmHg 82%
    01:00 +16°C° 0 mm 2 mps 752 mmHg 86%
    02:00 +15°C° 0 mm 2 mps 752 mmHg 89%
    03:00 +15°C° 0 mm 2 mps 753 mmHg 90%
    04:00 +15°C° 0 mm 2 mps 753 mmHg 91%
    05:00 +15°C° 0 mm 2 mps 753 mmHg 92%
    06:00 +16°C° 0 mm 2 mps 753 mmHg 88%
    07:00 +17°C° 0 mm 2 mps 753 mmHg 85%
    08:00 +19°C° 0 mm 1 mps 754 mmHg 82%
    09:00 +19°C° 0 mm 2 mps 754 mmHg 78%
    10:00 +19°C° 0 mm 2 mps 754 mmHg 74%
    11:00 +20°C° 0 mm 2 mps 754 mmHg 71%
    12:00 +21°C° 0.4 mm 2 mps 754 mmHg 71%
    13:00 +21°C° 0.4 mm 3 mps 755 mmHg 72%
    14:00 +21°C° 0.4 mm 3 mps 755 mmHg 72%
    15:00 +21°C° 0.1 mm 4 mps 755 mmHg 70%
    16:00 +21°C° 0.1 mm 4 mps 755 mmHg 68%
    17:00 +21°C° 0.1 mm 4 mps 755 mmHg 66%
    18:00 +20°C° 0 mm 3 mps 755 mmHg 72%
    19:00 +19°C° 0 mm 2 mps 756 mmHg 79%
    20:00 +18°C° 0 mm 2 mps 756 mmHg 86%
    21:00 +17°C° 0 mm 2 mps 756 mmHg 89%
    22:00 +16°C° 0 mm 2 mps 756 mmHg 92%
    23:00 +15°C° 0 mm 1 mps 757 mmHg 95%

    21 July, Sunday

    Time Temperature Precipitation Wind Pressure Humidity
    00:00 +14°C° 0 mm 1 mps 757 mmHg 95%
    01:00 +14°C° 0 mm 1 mps 757 mmHg 95%
    02:00 +14°C° 0 mm 1 mps 757 mmHg 95%
    03:00 +14°C° 0 mm 1 mps 757 mmHg 95%
    04:00 +14°C° 0 mm 1 mps 757 mmHg 94%
    05:00 +13°C° 0 mm 0 mps 757 mmHg 94%
    06:00 +16°C° 0 mm 1 mps 757 mmHg 85%
    07:00 +19°C° 0 mm 1 mps 758 mmHg 77%
    08:00 +21°C° 0 mm 1 mps 758 mmHg 68%
    09:00 +22°C° 0 mm 1 mps 758 mmHg 64%
    10:00 +23°C° 0 mm 1 mps 758 mmHg 59%
    11:00 +25°C° 0 mm 1 mps 758 mmHg 54%
    12:00 +25°C° 0 mm 2 mps 758 mmHg 53%
    13:00 +25°C° 0 mm 2 mps 758 mmHg 52%
    14:00 +25°C° 0 mm 2 mps 758 mmHg 52%
    15:00 +25°C° 0 mm 2 mps 758 mmHg 54%
    16:00 +24°C° 0 mm 2 mps 758 mmHg 57%
    17:00 +24°C° 0 mm 2 mps 758 mmHg 59%
    18:00 +21°C° 0 mm 2 mps 758 mmHg 66%
    19:00 +21°C° 0 mm 1 mps 758 mmHg 73%
    20:00 +20°C° 0 mm 1 mps 758 mmHg 80%
    21:00 +19°C° 0 mm 1 mps 758 mmHg 83%
    22:00 +16°C° 0 mm 1 mps 758 mmHg 85%
    23:00 +15°C° 0 mm 1 mps 758 mmHg 88%
    Show more